This demonstration page uses our WeatherBlox Daily Observations layout. Learn more.

Left ArrowRight Arrow

53.62937, 11.41316

Hourly Observations for March 20, 2021

Temp ( °F °C ) Dew Point ( °F °C ) Humidity (%) Winds ( mph kmh ) Pressure ( in mb ) Visibility ( mi km ) Precip ( " mm )
8:50 am 08:50 Mostly Sunny 32 0 21 -6 64 64 SW 9 15 30.36 1028 7 11 N/A
9:20 am 09:20 Partly Cloudy 34 1 21 -6 60 60 SW 9 15 30.36 1028 30 48 N/A
9:50 am 09:50 Partly Cloudy 34 1 21 -6 60 60 SW 12 19 30.33 1027 30 48 N/A
10:20 am 10:20 Partly Cloudy 36 2 19 -7 52 52 SW 10 17 30.33 1027 30 48 N/A
10:50 am 10:50 Mostly Sunny 36 2 21 -6 56 56 SW 15 24 30.33 1027 7 11 N/A
11:20 am 11:20 Mostly Cloudy 37 3 23 -5 56 56 SSW 15 24 30.33 1027 30 48 N/A
11:50 am 11:50 Mostly Cloudy 37 3 23 -5 56 56 SW 14 22 30.30 1026 30 48 N/A
12:20 pm 12:20 Mostly Cloudy 39 4 25 -4 56 56 SW 16 26 30.30 1026 30 48 N/A
12:50 pm 12:50 Mostly Cloudy 39 4 27 -3 61 61 SW 14 22 30.30 1026 30 48 N/A
1:20 pm 13:20 Mostly Cloudy 39 4 27 -3 61 61 SW 16 26 30.27 1025 30 48 N/A
1:50 pm 13:50 Mostly Cloudy 39 4 28 -2 65 65 SSW 16 26 30.24 1024 30 48 N/A
2:20 pm 14:20 Mostly Cloudy 41 5 28 -2 61 61 SSW 15 24 30.24 1024 30 48 N/A
2:50 pm 14:50 Mostly Cloudy 39 4 28 -2 65 65 SW 14 22 30.21 1023 30 48 N/A
3:20 pm 15:20 Mostly Cloudy 41 5 30 -1 66 66 SW 16 26 30.21 1023 30 48 N/A
3:50 pm 15:50 Mostly Cloudy 41 5 30 -1 66 66 SW 16 26 30.18 1022 30 48 N/A
4:20 pm 16:20 Mostly Cloudy 41 5 32 0 70 70 SW 17 28 30.18 1022 30 48 N/A
4:50 pm 16:50 Mostly Cloudy 41 5 32 0 70 70 SW 15 24 30.18 1022 30 48 N/A
5:20 pm 17:20 Mostly Cloudy 41 5 34 1 76 76 SW 16 26 30.15 1021 30 48 N/A
5:50 pm 17:50 Mostly Cloudy with Mist and Fog 39 4 36 2 87 87 SSW 15 24 30.12 1020 3 5 N/A
6:20 pm 18:20 Mostly Cloudy with Mist and Fog 39 4 37 3 93 93 SSW 15 24 30.12 1020 3 5 N/A
6:50 pm 18:50 Mostly Cloudy with Mist and Fog 39 4 39 4 100 100 SW 14 22 30.12 1020 2 4 N/A
7:20 pm 19:20 Mostly Cloudy with Mist and Fog 39 4 39 4 100 100 SW 14 22 30.09 1019 2 3 N/A
7:50 pm 19:50 Mostly Cloudy with Drizzle 39 4 39 4 100 100 SW 14 22 30.09 1019 3 4 N/A

Powered by AerisWeather